Showing default

COSMOS 1461, 14064

Orbit data source: Space-Track

COSMOS 1461, 14064 is a payload satellite owned by VMF (CIS) in LEO that was launched on Sat, 07 May 1983 UTC via a TSIKLON-2 launch vehicle from the Tyuratam Missile And Space Complex (TTMTR). Payload-class satellites include a variety of spacecraft equipped with specific instruments for various scientific and technological missions. These include communications satellites like Starlink; space stations such as the ISS; scientific satellites like the Hubble; Earth observation satellites from companies like Planet Labs, Umbra, and HawkEye 360; GPS; miniature CubeSats for education and research; and military/defense satellites.

Loading next visibility...
Identifier
14064, 1983-044A
Orbit
LEO
Country
Flag of CISCIS
Related business
Manufacturer
TSSKB/KOMET
Mission
Defense Sigint
Bus & Motor
US-P, Unknown motor
Mass
3,300 kg wet, ~3,000 kg dry
Launch date (UTC)
1983-05-07 (42 years ago)
Launch vehicle
TSIKLON-2
Launch site
Tyuratam Missile And Space Complex (TTMTR)
Object type
Payload
Rocket body
Debris
Shape & HBR
Cyl, 5.0 m
Radar Cross Section
10.874 m², Large (>1 m²)

Expand to show TLE details & history
Last TLE update: 13 hours ago

TLE from 13 hours ago
0 COSMOS 1461
1 14064U 83044A   25261.02172739  .00018799  00000-0  67782-3 0  9998
2 14064  64.9904 226.0769 0071898 279.7706  79.5311 15.26165268175429
Epoch: 2025-09-18T00:31Z
TLE epoch observation values (Epoch: 2025-09-18T00:31:17.246Z)
Latitude
-0.00006°
Longitude
-138.93429°
Altitude
480.72 km
Speed
7.631 km/s
True Right ascension
15h 04m 18s
True Declination
0° 00' 00"
Sunlit
Object was in daylight at epoch
Visualization orbit readout
Latitude
Unknown
Longitude
Unknown
Altitude
Unknown
Speed
Unknown
Apparent Right ascension
Unknown
Apparent Declination
Unknown
Sunlit
N/A
Visualization observer readout
Local Sidereal Time
06:44:54
Azimuth
Unknown
Elevation
Unknown
Doppler factor
Unknown
Orbital elements
Apogee altitude
535.156 km
Perigee altitude
436.455 km
Semi-major axis
6,863.942 km
Eccentricity
0.00719
Inclination
64.9904°
RAAN
226.0769°
Arg. of periapsis
279.7706°
True anomaly
80.34257°
Mean anomaly
79.5311°
Eccentric anomaly
79.93671°
Mean motion
3.81665 °/min
Orbital period
94.32 mins
BSTAR
0.00067782
Loading maneuver chart data...
Computing Atmospheric mass density...

Documentation

Showing up to 5 results
|